Погода в Карлсруэ

Германия     49°00′34″N   8°23′14″E
темп.,
°C
ветер,
м/с
пор.,
м/с
влажн.,
%
обл.,
%
осадки,
мм/ч
давл.,
гПа
погр.,
м
17 апреля, сб
сб1723:00+4всв1476100 0.0 1025216
02:00+4св138099 0.0 1024136
05:00+2всв2492100 0.0 1023102
08:00+3всв248171 0.0 1024244
11:00+8св345421 0.0 10231233
14:00+11ссв343910 0.0 10211832
17:00+10всв455988 0.0 10201233
20:00+7всв356994 0.0 1021445
18 апреля, вс
вс1823:00+7в2576100 0.0 1022686
02:00+6св2581100 0.0 1021432
05:00+4св248699 0.0 1021417
08:00+5всв2484100 0.0 1022434
11:00+7св237098 0.0 1021803
14:00+11всв235777 0.0 10201208
17:00+11св236097 0.2 10191076
20:00+8юв228289 0.6 102049
19 апреля, пн
пн1923:00+7ююз1184100 0.0 102027
02:00+7ссв0196100 1.6 102041
05:00+7сз119574 0.8 101952
08:00+7с129491 1.0 1019194
11:00+9с128292 0.1 1019587
14:00+11св226890 0.9 10171043
17:00+11в226892 0.6 1016971
20:00+9в228380 0.8 101681
20 апреля, вт
вт2023:00+6юв21916 0.0 101723
02:00+5вюв11925 0.0 101616
05:00+4вюв11925 0.0 101617
08:00+6вюв118499 0.0 101686
11:00+10всв236791 0.0 1015605
14:00+13всв225643 0.1 1014997
17:00+15ссв22478 0.0 10121511
20:00+11в22722 0.1 101214
21 апреля, ср
ср2123:00+7ююв11835 0.0 101312
02:00+6ююв11864 0.0 101212
05:00+5ююз11895 0.0 101218
08:00+7юз13805 0.0 1011128
11:00+13зюз356259 0.3 1010789
14:00+14зюз466293 2.1 10091568
17:00+12з5762100 0.8 10091243
20:00+8ююз2792100 2.0 1010477